Hourly Data Report for October 02, 2017

All times are specified in Local Standard Time (LST). Add 1 hour to adjust for Daylight Saving Time where and when it is observed.

FORT LIARD
NORTHWEST TERRITORIES

60°14'00.000" N
123°28'00.000" W
213.40 m
2201579
71497
WJL

Download Data

Hourly Data (October 2017)
Hourly Data Report for October 2, 2017
Temp Definition
°C
Dew Point Temp Definition
°C
Rel Hum Definition
%
Wind Dir Definition
10's deg

Wind Spd Definition
km/h
Visibility Definition
km
Stn Press Definition
kPa
Hmdx Definition


Wind Chill Definition


Weather Definition


TIME
00:00 -1.1 -1.7 96 20 12   100.59   -5 LegendNANA
01:00 -1.2 -1.6 97 21 12   100.61   -5 LegendNANA
02:00 -1.2 -1.5 98 21 13   100.62   -5 LegendNANA
03:00 -1.5 -1.8 98 21 12   100.67   -6 LegendNANA
04:00 -1.4 -1.5 99 22 12   100.67   -5 LegendNANA
05:00 -1.4 -1.5 100 22 12   100.65   -5 LegendNANA
06:00 -1.7 -1.8 100 21 14   100.64   -6 LegendNANA
07:00 -1.9 -1.9 100 24 10   100.61   -6 LegendNANA
08:00 -1.7 -1.8 100 23 12   100.53   -6 LegendNANA
09:00 -1.5 -1.6 99 23 12   100.53   -6 LegendNANA
10:00 -0.9 -0.9 99 24 8   100.45   -4 LegendNANA
11:00 1.8 1.2 96 21 10   100.36     LegendNANA
12:00 5.8 2.5 79 21 12   100.21     LegendNANA
13:00 10.2 0.2 50 21 17   100.08     LegendNANA
14:00 11.6 -0.2 44 21 22   100.00     LegendNANA
15:00 12.4 0.0 43 19 18   99.90     LegendNANA
16:00 12.7 0.1 42 21 21   99.82     LegendNANA
17:00 12.3 0.3 44 20 15   99.73     LegendNANA
18:00 10.8 1.1 51 21 19   99.61     LegendNANA
19:00 9.6 1.0 55 21 17   99.56     LegendNANA
20:00 9.7 1.1 55 22 21   99.54     LegendNANA
21:00 8.0 1.1 62 17 8   99.44     LegendNANA
22:00 8.3 0.7 59 22 10   99.36     LegendNANA
23:00 9.3 -0.1 52 22 18   99.30     LegendNANA

Notes on Data Quality.

Legend

  • E = Estimated
  • M = Missing
  • NA = Not Available
  • ‡ = Partner data that is not subject to review by the National Climate Archives
Date modified: